Temperature
2 3 2 2 2 2 2 2 3 3 4 5 5 4 4 5 5 5 5 5 5 5 5 5 5 5 5 5 4 4 4 4 4 3 3 3 3 3 3 3 3 3 3 3
1 2 2 2 2 3 3 3 2 3 3 4 5 4 4 4 5 4 5 5 5 5 5 5 4 4 4 4 4 4 3 3 3 3 3 3 3 3 3 3 3 2 2 2
1 1 1 1 2 2 2 2 2 3 4 4 3 3 4 4 4 4 5 5 5 5 5 4 4 4 4 4 3 3 3 3 3 2 2 2 2 2 2 2 2 2 2 2
-0 0 1 3 3 3 2 2 2 3 3 3 3 4 4 5 5 5 5 5 5 4 4 4 4 3 3 3 3 3 2 2 2 2 2 2 2 2 2 2 2 2 2 1
-1 -0 1 3 3 2 2 2 2 2 2 3 3 3 3 5 5 5 5 4 4 4 4 4 3 3 3 3 2 2 2 2 2 2 1 1 1 1 1 1 1 1 1 1
-1 0 1 3 3 3 3 2 3 2 2 2 2 1 2 4 4 4 4 4 4 4 3 3 3 3 2 2 2 2 2 2 1 1 1 1 1 1 1 1 1 0 0 0
-1 -0 1 2 2 3 2 3 3 3 3 2 2 3 4 4 4 4 4 3 3 3 3 3 2 2 2 2 2 2 2 1 1 1 1 1 0 0 0 0 0 -0 -0 -0
-1 -1 1 2 1 2 2 3 3 3 3 3 3 3 3 3 3 3 3 3 2 2 2 2 2 2 2 2 1 1 1 1 1 0 0 0 -0 -0 -0 -1 -1 -1 -1 -1
-0 1 2 2 3 3 3 3 3 3 3 3 2 2 2 2 2 2 2 2 2 2 2 2 1 1 1 1 1 1 0 0 0 -0 -0 -1 -1 -1 -1 -1 -1 -1 -1 -1
-1 0 1 2 3 3 3 3 3 3 3 3 2 2 2 2 2 2 2 2 1 1 1 1 1 1 1 1 0 0 -0 -0 -1 -1 -1 -1 -1 -1 -1 -2 -2 -2 -2 -2
-1 -0 0 2 3 3 3 3 3 3 2 2 2 2 2 1 1 1 1 1 1 1 1 1 0 0 0 0 -0 -1 -1 -1 -1 -1 -1 -1 -2 -2 -2 -2 -2 -2 -2 -2
0 1 0 1 3 2 2 2 2 2 2 2 2 1 1 1 1 1 1 1 0 0 0 0 0 -0 -0 -1 -1 -1 -1 -1 -2 -2 -2 -2 -2 -2 -2 -2 -2 -3 -3 -3
2 2 2 2 2 2 2 1 1 1 1 1 1 1 1 0 0 0 0 0 0 0 -0 -0 -1 -1 -1 -1 -1 -1 -1 -2 -2 -2 -2 -3 -3 -3 -3 -3 -3 -3 -3 -3
1 1 1 1 1 1 1 1 0 0 0 0 -0 -0 -0 -0 -0 -0 -0 -0 -0 -1 -1 -1 -1 -1 -1 -2 -2 -2 -2 -2 -2 -3 -3 -3 -3 -3 -3 -3 -3 -3 -3 -3
1 1 1 1 1 0 0 -0 -0 -0 -1 -1 -1 -1 -1 -1 -1 -1 -1 -1 -1 -1 -1 -1 -2 -2 -2 -2 -2 -2 -2 -3 -3 -3 -3 -3 -3 -4 -4 -4 -4 -4 -4 -3
0 0 0 -0 -0 -0 -1 -1 -1 -1 -1 -1 -1 -1 -1 -1 -1 -2 -2 -2 -2 -2 -2 -2 -2 -2 -2 -2 -2 -3 -3 -3 -3 -3 -4 -4 -4 -4 -4 -4 -4 -4 -4 -4
-1 -1 -1 -1 -1 -1 -1 -1 -1 -2 -2 -2 -2 -2 -2 -2 -2 -2 -2 -2 -2 -2 -2 -2 -2 -2 -3 -3 -3 -3 -3 -3 -3 -4 -4 -4 -4 -4 -4 -4 -4 -4 -4 -4
-0 -0 -1 -1 -1 -1 -2 -2 -2 -2 -2 -2 -2 -2 -2 -3 -3 -3 -3 -3 -3 -3 -3 -3 -3 -3 -3 -3 -3 -4 -4 -4 -4 -4 -4 -4 -4 -4 -4 -4 -4 -4 -4 -4
-1 -1 -1 -1 -1 -2 -2 -2 -2 -2 -2 -3 -3 -3 -3 -3 -3 -3 -3 -3 -3 -3 -3 -3 -3 -3 -3 -3 -4 -4 -4 -4 -4 -4 -4 -5 -5 -4 -4 -5 -5 -5 -5 -5
-1 -1 -2 -2 -2 -2 -2 -2 -3 -3 -3 -3 -3 -3 -3 -3 -3 -3 -3 -3 -3 -3 -3 -3 -3 -4 -4 -4 -4 -4 -4 -4 -5 -5 -5 -5 -5 -5 -5 -5 -5 -5 -5 -5
-2 -2 -2 -2 -2 -2 -2 -3 -3 -3 -3 -3 -3 -3 -3 -4 -4 -4 -4 -4 -4 -4 -4 -4 -4 -4 -4 -4 -4 -4 -5 -5 -5 -5 -5 -5 -5 -5 -5 -5 -5 -5 -5 -5
-2 -2 -2 -2 -3 -3 -3 -3 -3 -3 -3 -3 -3 -3 -4 -4 -4 -4 -4 -4 -4 -4 -4 -4 -4 -4 -4 -5 -5 -5 -5 -5 -5 -5 -5 -5 -5 -5 -5 -5 -5 -5 -6 -6
-3 -3 -3 -3 -3 -3 -3 -3 -3 -3 -3 -4 -4 -4 -4 -4 -4 -4 -5 -5 -5 -5 -5 -5 -5 -5 -5 -5 -5 -5 -5 -5 -5 -5 -5 -5 -5 -6 -6 -6 -5 -6 -6 -6
-3 -3 -4 -4 -4 -4 -4 -4 -4 -4 -4 -4 -4 -4 -5 -5 -5 -5 -5 -5 -5 -5 -5 -5 -5 -5 -5 -5 -5 -5 -5 -5 -5 -5 -5 -5 -6 -6 -6 -6 -6 -6 -6 -6
-4 -4 -4 -4 -4 -4 -4 -4 -4 -4 -4 -4 -5 -5 -5 -5 -5 -5 -5 -5 -5 -5 -5 -5 -6 -6 -5 -5 -6 -6 -6 -6 -6 -6 -6 -6 -6 -6 -6 -6 -6 -6 -6 -6
-4 -5 -5 -5 -5 -5 -5 -5 -5 -5 -5 -5 -5 -5 -5 -5 -5 -6 -6 -6 -6 -6 -6 -6 -6 -6 -6 -6 -6 -6 -6 -6 -6 -6 -6 -6 -6 -6 -6 -6 -6 -6 -6 -6
-5 -5 -5 -5 -5 -5 -5 -5 -5 -5 -5 -5 -6 -6 -6 -6 -6 -6 -6 -6 -6 -6 -6 -6 -6 -6 -6 -6 -6 -6 -6 -6 -6 -6 -6 -6 -6 -6 -6 -6 -6 -6 -6 -6
Wind_Speed
8 6 5 8 10 10 10 10 9 10 10 13 9 7 6 5 4 3 4 4 5 5 4 4 4 4 4 4 4 4 4 4 4 3 3 2 2 2 2 2 3 4 3 3
5 5 6 10 12 13 13 11 12 11 13 11 7 4 5 6 6 6 6 6 6 6 6 5 5 5 4 4 4 4 4 4 3 3 2 2 2 2 2 2 2 2 3 3
5 3 3 9 11 13 9 9 9 13 13 7 5 6 7 7 7 7 7 7 7 7 7 6 6 6 5 5 4 5 4 4 3 3 3 2 2 2 2 2 2 2 3 3
2 1 7 8 4 8 9 10 11 9 8 7 8 6 5 6 7 7 7 7 6 6 5 5 5 5 4 4 4 5 4 4 4 4 3 3 2 3 2 2 2 2 3 3
3 4 8 8 4 5 7 8 8 10 10 8 4 3 5 5 5 7 7 6 6 5 5 4 5 5 4 4 4 4 5 5 4 4 4 3 3 3 2 2 2 2 3 3
3 4 7 6 3 2 3 6 5 7 7 6 2 3 6 4 4 5 5 4 4 4 3 3 4 5 5 5 5 6 6 5 5 4 4 4 4 3 2 2 3 2 3 3
5 6 8 6 2 4 4 7 3 4 6 6 6 7 6 4 4 5 4 4 4 4 4 4 4 5 5 5 6 6 5 4 4 4 4 4 3 2 2 2 2 2 3 3
5 5 9 3 4 6 7 4 2 4 4 4 5 5 4 3 4 4 3 3 3 4 3 3 4 5 5 6 5 4 4 4 4 4 4 3 3 3 2 2 2 2 2 3
9 9 5 5 6 6 4 4 4 4 4 4 4 4 3 3 3 3 3 3 3 4 3 3 3 5 6 5 4 5 4 4 4 4 3 3 4 4 3 3 3 3 3 3
6 8 7 7 6 5 5 6 6 5 5 4 5 5 4 3 3 2 2 2 2 3 3 3 4 5 5 4 4 5 5 4 4 4 3 3 3 4 4 4 4 4 3 4
7 8 6 6 6 6 6 5 4 4 4 4 5 5 5 4 4 3 3 2 2 4 4 5 4 4 4 4 5 5 5 4 4 4 4 3 3 4 4 5 5 5 4 4
9 7 6 8 6 5 5 5 5 4 3 3 4 4 4 4 4 4 4 3 3 3 4 4 3 4 4 4 6 6 5 5 4 3 3 3 3 2 4 4 6 7 6 5
8 6 6 7 6 4 5 5 5 4 4 4 3 4 4 4 4 3 3 4 4 4 4 4 3 4 4 4 6 6 6 5 4 4 4 3 3 3 2 3 3 5 6 6
6 4 6 6 5 5 4 4 3 2 3 3 4 3 3 4 3 4 4 4 4 3 3 4 4 4 4 4 5 6 5 5 4 4 4 4 4 3 3 3 3 3 4 5
6 6 7 6 5 3 2 2 2 3 2 3 3 3 3 4 4 4 3 2 2 3 3 3 4 4 3 4 5 5 5 4 4 3 3 3 3 3 3 3 3 2 2 3
5 4 4 5 5 4 3 3 3 4 3 3 3 3 3 3 3 3 2 2 3 4 4 4 4 4 3 4 4 4 4 5 5 3 3 3 3 3 3 3 3 2 3 3
3 4 4 5 5 5 4 4 4 5 4 4 4 3 2 2 2 2 2 2 3 4 4 4 4 3 3 4 4 3 3 4 5 4 3 3 3 3 3 3 3 3 3 3
6 7 6 6 6 5 5 4 3 3 3 3 3 2 2 3 3 3 2 1 1 2 2 3 3 3 3 3 3 3 3 3 3 3 3 3 3 3 3 3 3 3 2 3
3 4 4 4 4 4 4 3 3 3 2 2 2 3 3 3 3 2 2 2 2 2 2 2 2 2 2 3 3 3 3 3 3 2 3 3 3 2 3 3 3 3 3 2
2 2 2 2 1 2 2 2 2 1 2 2 2 2 2 2 2 2 1 1 2 2 2 1 1 2 2 3 3 3 3 3 3 3 2 2 3 3 3 3 3 3 2 2
2 2 1 1 0 0 1 1 1 1 1 1 2 3 2 1 1 1 1 1 2 1 1 1 1 1 2 2 3 2 3 3 3 3 3 3 3 3 3 3 2 2 2 3
2 1 0 0 1 1 1 1 1 1 1 1 2 2 2 1 1 1 0 1 1 1 0 0 0 1 2 2 2 2 2 2 2 2 2 2 3 3 3 3 2 2 2 2
1 0 0 1 1 1 2 2 2 2 2 2 2 2 2 1 1 1 0 1 0 1 1 0 1 1 2 1 2 2 2 2 2 2 2 2 3 3 3 3 2 2 2 2
1 1 1 2 2 3 3 2 3 3 3 3 2 2 2 2 1 1 0 0 1 2 1 0 1 1 1 1 1 1 2 2 2 2 2 2 2 2 2 2 2 2 2 2
2 2 2 2 2 2 2 2 3 3 4 3 3 3 2 1 1 0 1 1 2 2 1 1 2 2 1 1 1 1 1 1 2 2 1 1 2 2 2 1 1 1 2 2
2 1 1 1 1 1 1 2 2 2 2 2 2 2 2 2 2 2 1 2 2 2 2 1 1 1 1 1 0 0 0 1 1 1 1 1 1 1 1 1 1 1 1 2
2 2 2 2 2 2 1 1 2 1 1 1 1 2 2 2 2 2 2 2 2 2 2 1 1 1 1 1 0 0 0 0 0 0 1 1 1 1 2 2 1 1 1 1
Wind_Direction
246 249 230 235 235 223 221 218 220 240 246 258 253 248 256 259 248 232 211 200 198 199 203 202 200 199 194 194 189 180 178 188 200 199 195 194 200 210 210 205 213 213 215 226
271 258 252 259 246 232 233 232 236 250 261 260 258 241 244 243 232 222 220 215 212 207 205 205 204 203 197 197 190 175 180 193 190 183 185 192 200 201 200 210 218 214 214 222
258 277 304 262 232 217 219 218 211 233 245 255 257 243 232 232 228 224 228 223 216 214 212 210 207 201 199 201 185 175 181 185 185 182 190 205 210 203 212 222 229 238 236 232
211 137 236 246 210 199 213 233 222 232 244 241 242 251 257 243 224 225 226 223 219 214 214 211 202 197 194 183 178 183 187 193 194 188 197 206 205 214 224 225 228 241 250 245
179 220 266 283 241 185 199 252 230 230 245 252 250 292 288 259 219 221 224 218 213 206 204 199 196 189 175 181 182 187 196 200 200 195 198 202 210 221 223 219 239 246 251 250
184 206 238 253 244 188 141 268 251 215 233 246 204 256 264 250 223 224 224 216 207 195 182 188 195 175 172 187 189 202 205 205 199 194 196 203 211 219 221 220 228 241 258 258
209 231 258 258 233 123 176 251 260 217 230 227 219 234 248 246 237 224 221 213 198 188 194 203 187 168 181 195 207 209 198 193 193 194 199 201 203 207 207 219 232 245 257 263
186 218 253 226 146 186 229 269 263 249 238 237 243 250 257 250 237 219 209 206 191 191 207 205 184 174 189 212 211 188 183 188 194 195 197 193 194 206 203 201 218 244 257 275
201 222 250 214 216 233 237 255 259 245 249 234 245 246 249 255 244 227 211 209 197 188 200 209 197 186 200 214 187 176 180 191 195 193 196 192 195 203 206 203 212 228 237 255
244 258 258 255 257 258 247 247 258 254 246 233 237 241 240 238 242 241 228 216 198 180 195 220 215 206 207 198 180 179 187 195 193 191 197 198 204 205 208 212 217 225 234 249
248 265 284 269 249 255 265 267 264 262 252 236 228 238 230 233 233 230 232 227 205 202 210 221 213 212 209 190 176 184 191 195 197 199 198 204 213 216 219 221 220 225 231 235
238 236 232 258 258 253 254 255 250 247 261 250 223 234 239 239 236 226 224 221 213 213 214 218 206 212 211 194 182 184 194 196 198 200 202 206 213 244 245 241 245 247 248 250
241 251 247 263 269 256 249 253 255 244 234 246 247 231 236 244 241 229 225 220 218 217 212 211 212 219 217 198 188 190 196 199 198 198 201 207 209 216 246 267 259 253 255 259
248 256 266 261 260 267 256 258 263 258 249 243 247 244 238 243 238 226 224 220 214 210 211 209 215 231 225 197 193 198 198 201 198 199 202 207 210 215 218 226 251 270 267 264
251 240 244 259 266 266 256 257 265 274 273 270 248 239 233 226 229 233 229 217 206 211 220 215 223 240 223 196 196 197 196 198 196 198 202 205 205 206 214 223 235 259 292 287
266 268 251 246 253 260 258 246 246 258 259 258 254 244 229 216 225 237 232 206 201 220 230 226 232 236 212 195 194 195 200 199 191 190 198 202 202 205 210 217 230 244 256 270
243 262 259 259 256 259 255 246 238 245 245 246 246 241 220 211 230 242 237 223 220 231 234 226 230 230 209 196 191 194 194 195 191 188 196 202 206 208 209 213 224 239 255 259
235 241 241 239 241 250 259 256 245 238 234 239 236 216 207 209 221 233 235 225 225 260 255 240 228 211 200 192 185 184 184 187 186 186 193 200 202 205 207 212 221 235 262 266
256 248 246 241 233 229 235 243 241 233 230 214 207 216 219 219 219 221 208 198 211 242 263 254 210 180 184 192 178 172 172 174 176 178 186 195 199 201 205 211 221 232 241 251
282 274 263 265 254 223 226 227 215 213 219 199 191 191 199 214 206 198 195 226 243 242 246 236 177 174 189 186 168 162 168 172 175 178 181 188 193 200 208 213 220 230 237 244
317 313 297 280 294 248 199 185 164 176 206 179 178 187 196 207 194 183 180 247 288 281 236 195 168 192 187 169 153 155 166 173 178 181 185 191 195 203 211 215 223 231 237 246
325 316 278 143 104 47 22 66 113 134 127 121 131 139 139 140 128 104 142 231 257 307 29 132 198 180 162 147 147 157 166 169 174 179 188 194 198 205 212 216 226 232 232 235
320 312 91 105 113 91 51 50 66 92 104 109 116 126 130 128 124 134 301 318 335 45 39 356 158 140 130 124 146 157 164 174 184 190 197 203 204 205 212 218 227 229 227 233
20 45 56 72 89 88 68 39 47 59 67 67 70 85 107 99 55 30 50 73 46 46 34 92 100 102 91 95 125 152 177 188 193 197 197 197 203 206 209 213 226 233 227 225
51 63 72 80 84 84 86 75 65 62 61 58 53 45 42 63 107 70 43 53 69 53 38 47 55 54 54 85 126 168 199 204 192 184 189 198 204 208 211 215 220 231 226 223
68 67 59 63 93 115 114 100 84 71 70 61 39 35 41 47 65 67 59 54 63 52 35 23 23 36 43 68 122 184 204 214 213 208 202 201 198 202 209 216 226 234 234 234
72 72 68 58 50 62 79 90 97 80 72 84 43 19 32 43 51 52 51 45 41 38 31 25 24 23 25 29 42 34 23 312 263 229 208 208 212 217 217 222 237 241 247 252
Height
1456 1454 1455 1454 1454 1455 1456 1454 1455 1446 1443 1434 1432 1432 1432 1431 1431 1432 1432 1433 1434 1435 1436 1437 1439 1440 1441 1442 1443 1444 1445 1446 1446 1447 1448 1448 1449 1449 1450 1450 1451 1451 1451 1451
1456 1452 1452 1450 1447 1447 1447 1446 1445 1442 1437 1428 1428 1429 1429 1429 1429 1429 1430 1430 1431 1432 1433 1434 1435 1436 1437 1438 1439 1440 1441 1442 1443 1443 1444 1444 1445 1446 1446 1446 1447 1447 1447 1447
1455 1452 1451 1449 1439 1439 1439 1436 1437 1436 1429 1425 1427 1426 1426 1425 1425 1425 1426 1427 1427 1428 1429 1430 1431 1432 1433 1434 1436 1436 1437 1438 1439 1439 1440 1441 1441 1442 1442 1442 1443 1443 1443 1443
1457 1457 1454 1432 1427 1427 1430 1428 1428 1426 1423 1423 1423 1422 1422 1422 1422 1422 1422 1423 1423 1424 1425 1426 1427 1428 1430 1431 1431 1432 1433 1434 1435 1436 1436 1437 1437 1438 1438 1438 1439 1439 1439 1439
1456 1454 1444 1429 1424 1425 1427 1425 1421 1421 1420 1420 1419 1420 1419 1418 1419 1419 1419 1419 1420 1421 1421 1422 1423 1424 1425 1427 1428 1428 1429 1430 1431 1432 1432 1433 1433 1434 1434 1434 1434 1435 1435 1435
1452 1448 1441 1424 1420 1419 1423 1424 1416 1416 1416 1417 1417 1421 1416 1415 1415 1415 1416 1416 1416 1417 1418 1419 1419 1421 1421 1422 1423 1424 1425 1426 1427 1428 1428 1428 1429 1430 1430 1430 1430 1431 1431 1431
1446 1445 1433 1421 1418 1419 1427 1420 1413 1412 1412 1413 1413 1413 1412 1412 1412 1411 1411 1412 1412 1413 1413 1414 1416 1417 1417 1418 1419 1420 1422 1423 1423 1424 1424 1425 1426 1426 1426 1427 1427 1427 1427 1427
1443 1443 1430 1415 1417 1419 1415 1411 1410 1409 1409 1409 1408 1408 1408 1408 1408 1407 1407 1408 1408 1409 1409 1411 1412 1413 1413 1414 1416 1417 1418 1418 1419 1420 1420 1421 1422 1422 1423 1423 1423 1423 1423 1423
1427 1422 1413 1411 1410 1409 1409 1409 1408 1407 1406 1406 1405 1405 1405 1405 1404 1404 1404 1404 1405 1405 1406 1407 1409 1410 1410 1411 1412 1413 1413 1414 1415 1416 1417 1417 1418 1418 1419 1419 1419 1419 1419 1419
1420 1412 1409 1408 1407 1406 1406 1405 1404 1404 1403 1403 1402 1402 1402 1402 1402 1401 1401 1401 1402 1402 1402 1403 1405 1406 1407 1408 1408 1409 1409 1410 1411 1412 1413 1413 1414 1415 1415 1415 1415 1415 1415 1415
1414 1408 1406 1403 1403 1403 1403 1402 1401 1401 1400 1399 1399 1398 1398 1398 1398 1398 1398 1398 1399 1399 1399 1400 1401 1402 1403 1403 1404 1405 1405 1406 1407 1408 1409 1409 1410 1411 1411 1412 1412 1412 1412 1412
1406 1402 1403 1399 1399 1399 1399 1398 1397 1397 1396 1396 1396 1395 1395 1395 1395 1395 1395 1395 1395 1396 1396 1397 1398 1398 1399 1399 1400 1400 1401 1402 1403 1404 1405 1405 1406 1407 1408 1409 1409 1409 1409 1409
1398 1397 1397 1395 1395 1395 1395 1394 1394 1393 1393 1392 1392 1392 1392 1391 1392 1391 1391 1392 1392 1392 1392 1393 1394 1394 1395 1395 1396 1396 1397 1398 1399 1400 1401 1401 1402 1403 1403 1404 1405 1405 1405 1405
1395 1394 1393 1391 1391 1391 1391 1390 1389 1389 1389 1388 1388 1388 1388 1388 1388 1388 1388 1388 1388 1388 1389 1389 1390 1390 1391 1391 1392 1392 1393 1394 1395 1396 1397 1398 1399 1399 1400 1400 1400 1401 1402 1402
1390 1390 1389 1387 1387 1386 1386 1386 1385 1384 1384 1384 1384 1384 1384 1383 1383 1383 1384 1384 1384 1385 1385 1385 1385 1386 1387 1387 1388 1388 1389 1390 1391 1392 1393 1394 1395 1396 1396 1397 1397 1397 1397 1398
1385 1385 1384 1384 1383 1382 1382 1381 1381 1380 1380 1380 1379 1379 1379 1379 1379 1380 1380 1380 1380 1381 1381 1381 1381 1382 1383 1383 1383 1384 1385 1386 1387 1389 1390 1391 1391 1392 1393 1393 1394 1394 1394 1394
1381 1380 1379 1379 1379 1378 1378 1377 1377 1376 1376 1376 1376 1376 1376 1375 1376 1376 1376 1377 1377 1377 1378 1378 1378 1378 1379 1379 1380 1380 1381 1382 1384 1385 1386 1387 1388 1389 1389 1390 1390 1390 1391 1391
1378 1377 1376 1375 1375 1374 1374 1374 1373 1373 1373 1372 1373 1372 1372 1372 1372 1372 1373 1373 1374 1374 1375 1375 1375 1375 1375 1376 1376 1377 1378 1379 1380 1382 1383 1384 1384 1385 1386 1387 1387 1387 1387 1387
1374 1373 1372 1372 1371 1371 1370 1370 1370 1370 1370 1369 1369 1369 1369 1369 1370 1370 1370 1370 1371 1371 1372 1372 1372 1372 1373 1373 1374 1374 1375 1376 1377 1378 1380 1381 1381 1382 1383 1383 1383 1384 1384 1384
1370 1370 1369 1368 1368 1367 1367 1367 1367 1367 1367 1367 1367 1366 1366 1367 1367 1367 1368 1368 1368 1369 1369 1369 1370 1370 1370 1370 1371 1371 1372 1373 1374 1375 1376 1377 1378 1379 1379 1380 1380 1380 1380 1380
1368 1367 1367 1366 1366 1365 1365 1365 1365 1364 1364 1365 1365 1364 1364 1365 1365 1365 1365 1366 1366 1367 1367 1367 1367 1367 1368 1368 1369 1369 1369 1370 1371 1372 1373 1374 1375 1375 1376 1376 1377 1377 1377 1377
1366 1366 1365 1364 1364 1364 1364 1364 1364 1363 1363 1363 1363 1363 1363 1363 1363 1364 1364 1364 1365 1365 1365 1365 1365 1366 1366 1366 1366 1367 1367 1368 1369 1370 1370 1371 1372 1372 1373 1373 1373 1374 1374 1374
1365 1364 1364 1363 1363 1363 1363 1363 1363 1363 1363 1363 1362 1362 1362 1362 1362 1362 1362 1363 1363 1363 1363 1363 1364 1364 1364 1364 1364 1365 1365 1366 1366 1367 1368 1369 1369 1370 1370 1370 1370 1371 1371 1371
1364 1363 1363 1363 1362 1362 1362 1362 1363 1363 1363 1363 1362 1362 1362 1362 1362 1362 1362 1362 1362 1362 1362 1362 1362 1362 1362 1362 1362 1363 1363 1364 1364 1365 1365 1366 1367 1367 1367 1367 1368 1368 1368 1368
1363 1363 1363 1362 1362 1362 1362 1362 1362 1362 1362 1362 1362 1362 1362 1362 1361 1361 1361 1361 1361 1361 1361 1361 1361 1361 1361 1361 1361 1361 1362 1362 1363 1363 1363 1364 1364 1364 1365 1365 1365 1365 1365 1366
1363 1363 1363 1363 1362 1362 1362 1362 1362 1362 1362 1362 1362 1362 1361 1361 1361 1361 1360 1360 1360 1360 1359 1359 1359 1359 1359 1359 1360 1360 1360 1360 1361 1361 1361 1362 1362 1362 1362 1363 1363 1363 1363 1363
1363 1363 1363 1363 1363 1363 1363 1363 1363 1362 1362 1362 1361 1361 1361 1361 1360 1360 1360 1359 1359 1359 1358 1358 1358 1358 1358 1358 1358 1358 1358 1359 1359 1359 1360 1360 1360 1360 1360 1361 1361 1361 1361 1361